Theta_e
289 289 290 290 291 291 291 290 290 290 291 291 292 292 293 293 293 294 295 295 295 295 294 294 294 293 293 292 292 291 291 291
289 289 289 289 289 289 289 288 288 289 289 290 291 291 292 291 292 292 293 293 293 294 293 293 293 292 291 291 291 289 289 289
287 287 287 287 288 288 288 288 287 288 288 288 289 290 289 290 291 291 291 291 292 292 292 292 292 291 290 289 289 288 288 288
286 286 286 286 286 286 287 286 286 287 287 286 287 288 287 287 288 290 290 290 290 289 290 290 290 289 289 289 289 288 288 288
284 284 285 285 284 284 285 285 285 285 285 285 285 286 286 286 286 287 288 288 289 289 288 289 289 288 288 286 287 288 287 287
282 283 283 283 283 284 284 284 284 283 283 283 285 286 286 285 285 285 286 286 286 287 287 287 287 287 287 286 285 286 285 285
282 282 282 282 282 282 283 283 283 282 282 282 283 284 284 283 282 283 284 285 286 285 285 284 285 287 289 287 285 285 284 284
282 283 283 283 283 282 282 283 282 281 281 281 282 282 282 280 280 281 282 284 284 285 285 285 286 287 288 288 286 284 284 284
283 283 283 284 283 283 282 281 281 281 280 280 280 280 280 278 278 279 282 283 283 283 284 285 284 286 287 287 286 285 284 285
283 283 282 282 282 281 280 280 279 279 279 279 279 278 277 275 276 278 281 281 281 282 283 283 284 286 286 286 284 284 284 284
282 281 281 280 279 278 278 278 277 278 278 278 278 276 274 275 275 276 278 277 278 280 282 283 283 285 286 285 285 284 284 284
281 279 279 279 278 276 276 276 277 277 277 276 276 274 274 273 274 273 273 274 275 277 281 281 283 283 285 286 284 284 284 284
278 277 278 277 276 274 274 276 276 275 274 273 272 272 272 270 270 270 271 271 272 275 278 280 281 282 283 285 285 286 284 284
275 274 275 275 274 272 273 273 271 269 268 268 269 269 268 268 268 268 269 270 271 273 275 278 280 281 282 283 284 285 284 285
272 270 270 271 270 269 269 268 266 265 265 265 265 265 266 266 267 267 267 268 270 271 273 276 279 279 280 280 281 282 283 284
268 267 266 267 266 265 264 263 262 262 262 262 263 262 263 264 265 265 267 268 268 269 271 273 276 279 281 280 279 280 281 280
265 264 263 262 262 262 262 261 260 260 260 261 261 261 262 262 262 266 268 270 271 273 273 273 277 279 281 282 281 282 283 277
262 261 261 260 260 261 261 260 260 259 260 260 260 260 260 261 261 260 264 268 269 271 273 275 276 278 282 282 283 282 283 276
260 259 259 259 259 260 260 260 259 259 260 260 260 260 260 260 261 261 261 261 263 267 270 273 276 281 282 284 283 279 281 277
258 258 260 259 259 260 260 259 259 260 260 261 261 261 261 261 261 262 262 262 263 265 267 270 275 279 280 284 280 278 279 277
Wind_Speed
13 13 13 14 14 14 14 14 14 14 13 12 14 15 13 12 13 13 13 12 12 13 15 16 17 17 17 15 14 16 13 12
13 13 14 13 14 15 16 16 16 15 13 12 11 13 12 10 11 12 13 13 13 12 13 15 16 16 17 18 17 18 17 15
12 13 13 14 14 15 15 15 16 15 15 14 13 13 13 14 15 13 12 12 13 13 13 13 15 16 18 19 17 18 20 19
8 9 11 13 13 13 13 14 14 14 13 13 14 14 14 15 15 15 14 13 12 12 13 14 15 16 17 18 19 19 19 19
8 9 10 9 10 12 12 12 13 14 14 14 13 13 14 14 14 14 14 14 14 13 12 14 15 15 15 16 18 19 18 19
7 9 10 11 10 11 11 12 13 13 14 14 13 13 13 13 12 13 13 11 12 14 13 11 13 12 15 15 17 19 18 18
8 9 9 9 10 12 12 12 11 11 13 13 12 12 12 13 14 13 12 12 12 12 13 14 10 18 21 19 17 18 19 19
9 10 10 11 10 11 13 13 13 12 10 11 11 12 12 13 14 13 13 12 13 13 12 14 16 21 21 24 18 16 18 20
10 10 10 11 12 12 11 11 11 12 13 13 12 13 13 15 15 15 14 14 13 14 14 14 12 21 24 25 18 19 20 20
10 11 12 12 12 12 12 12 12 13 12 12 12 14 15 16 16 15 15 15 16 16 16 15 16 21 23 20 15 19 21 18
12 12 13 13 11 12 13 13 14 14 14 13 13 12 14 17 18 16 15 17 15 17 16 18 18 23 23 20 13 17 15 16
13 13 13 13 12 15 15 15 14 13 14 16 15 15 15 16 16 17 18 18 18 19 17 18 17 18 25 24 15 14 13 13
12 13 15 14 13 17 18 16 14 14 16 16 17 14 14 18 17 18 17 18 20 18 18 14 15 20 24 27 27 24 16 14
12 15 15 15 14 17 19 19 19 18 18 18 18 17 17 18 18 15 16 15 17 15 16 14 11 12 23 26 27 27 20 11
13 16 18 15 16 16 19 19 19 21 20 18 18 18 17 14 14 14 14 14 14 15 15 15 12 11 9 9 12 22 18 17
13 16 19 18 18 16 18 18 19 20 19 18 15 17 16 15 14 14 16 17 15 15 14 15 15 12 16 14 9 9 13 10
16 16 17 17 19 18 16 17 18 18 15 14 14 14 14 15 15 24 31 35 36 38 30 18 32 37 30 25 23 25 24 11
15 16 17 18 19 18 17 17 18 18 18 14 16 14 14 14 15 16 16 29 32 33 34 36 35 36 32 28 24 24 22 12
15 17 17 18 19 18 18 17 18 18 23 15 14 14 14 14 15 14 14 15 14 20 25 28 31 31 23 25 21 11 17 12
15 16 16 18 19 17 16 18 19 17 14 14 14 14 16 15 15 14 15 14 14 13 19 19 27 23 22 23 11 9 10 11
Wind_Direction
17 19 21 21 18 21 20 20 18 15 19 12 3 356 341 316 293 276 268 252 240 232 223 222 217 215 213 214 214 210 210 211
13 14 13 15 15 12 10 10 8 11 10 9 9 6 358 338 316 300 289 275 253 239 227 222 218 217 221 222 215 214 211 208
10 4 6 8 6 5 4 4 2 358 357 358 0 2 359 354 348 331 305 288 270 255 242 231 224 219 219 221 221 216 214 208
6 3 359 357 356 356 355 356 354 352 356 353 354 355 355 349 343 338 327 307 281 256 253 243 232 226 223 224 223 222 222 217
350 348 351 356 350 344 344 352 349 348 348 350 347 346 344 341 337 333 330 313 300 278 250 253 246 235 227 226 230 227 224 221
333 333 338 338 340 332 332 342 343 340 338 339 336 334 334 336 334 329 323 313 296 286 277 256 249 246 233 228 227 229 226 224
321 316 313 314 316 320 320 323 330 323 323 324 326 325 329 329 327 323 317 313 307 291 280 270 256 247 239 234 234 226 227 224
299 289 285 295 296 294 302 315 318 310 306 309 311 313 319 321 316 315 311 311 304 297 275 267 265 262 251 240 238 231 230 227
306 300 291 283 283 286 290 292 293 297 307 312 312 311 314 313 311 311 309 307 307 302 291 276 260 256 256 253 243 238 235 232
305 304 301 296 298 292 289 290 285 280 280 288 301 303 308 305 304 305 302 303 304 294 290 281 273 261 251 248 243 239 238 231
310 308 303 308 305 288 284 285 283 286 286 286 286 287 294 300 301 300 296 292 290 287 281 275 274 269 259 249 239 239 234 230
308 305 303 311 311 297 295 288 289 287 285 286 286 285 285 286 288 295 294 290 284 281 273 271 264 261 255 245 243 243 238 232
313 306 308 314 309 301 297 305 303 297 289 286 287 285 286 283 283 282 282 281 282 281 278 266 262 252 250 246 236 245 237 234
311 308 306 311 312 303 305 313 307 301 293 290 288 285 282 280 279 279 274 270 273 274 274 271 266 258 252 248 246 242 249 239
314 306 303 311 309 303 307 308 301 296 295 296 292 290 285 279 275 272 270 270 269 269 271 273 265 260 248 239 244 245 245 232
308 302 301 308 306 305 301 303 298 297 298 297 292 287 285 275 273 269 266 267 272 269 276 283 276 262 261 249 239 232 224 198
303 299 299 300 297 298 299 297 295 293 292 290 291 287 283 282 279 270 275 276 273 272 267 265 264 272 265 260 255 248 234 176
302 299 295 294 293 295 295 292 288 287 289 287 284 282 283 281 281 285 280 278 279 278 275 270 270 269 258 249 246 248 235 190
299 291 291 289 291 298 297 294 292 289 287 283 281 279 277 275 275 276 280 284 281 276 275 275 278 266 265 236 235 236 235 191
292 287 294 298 296 299 298 296 294 293 288 286 283 279 276 276 274 272 273 274 278 284 282 282 282 279 271 241 217 224 233 180